Location: Civry
(47.2902°N, 4.6156°E)
Time: 06:31:39
(UTC+00:00)

STARLINK-1199 - Visible Passes

Search period start: 11 August 2020 00:00
Search period end: 21 August 2020 00:00
Orbit: 548 x 551 km, 53.0° (Epoch: 11 August)

Date Brightness Start Highest point End Pass type
(mag) Time Alt. Az. Time Alt. Az. Time Alt. Az.
11 Aug 4.9 19:35:48 10° WNW 19:39:40 37° N 19:43:33 10° ENE visible
11 Aug 3.8 21:15:34 10° WNW 21:19:43 69° NNE 21:20:54 43° E visible
11 Aug 5.9 22:55:27 10° WNW 22:56:32 16° W 22:56:32 16° W visible
12 Aug 4.8 19:30:22 10° WNW 19:34:16 38° N 19:38:10 10° ENE visible
12 Aug 3.6 21:10:04 10° WNW 21:14:13 82° NNE 21:15:17 49° ESE visible
12 Aug 6.1 22:50:10 10° W 22:50:55 14° W 22:50:55 14° W visible
13 Aug 4.7 19:24:55 10° WNW 19:28:51 40° N 19:32:48 10° E visible
13 Aug 3.5 21:04:33 10° WNW 21:08:43 82° SSW 21:09:42 51° SE visible
13 Aug 6.3 22:45:01 10° W 22:45:19 11° W 22:45:19 11° W visible
14 Aug 3.7 20:59:04 10° WNW 21:03:11 65° SSW 21:04:09 48° SSE visible
15 Aug 4.0 20:53:36 10° WNW 20:57:37 51° SW 20:58:38 40° S visible
16 Aug 4.4 20:48:09 10° WNW 20:52:02 39° SW 20:53:10 32° S visible
17 Aug 4.8 20:42:45 10° WNW 20:46:25 31° SW 20:47:45 25° S visible
18 Aug 5.3 20:37:24 10° W 20:40:45 24° SW 20:42:23 19° SSW visible
19 Aug 5.7 20:32:12 10° W 20:35:04 18° SW 20:37:05 13° SSW visible
20 Aug 6.0 20:27:12 10° W 20:29:22 14° SW 20:31:31 10° SSW visible
